Dewpoint
69 69 70 69 70 70 69 70 70 69 70 71 72 72 72 71 72 73 74 73 73 73 73 73 74 75 74 70 71 73 75 73 66 66 68 70 73 73 71 72 73 73 72
69 70 70 70 70 69 70 70 71 70 70 71 72 72 72 72 72 72 71 71 73 73 73 74 72 73 74 74 73 72 73 75 69 69 70 69 72 73 73 74 71 70 72
70 69 69 69 69 69 70 70 71 71 71 70 71 72 72 71 73 73 73 73 73 73 73 73 72 73 73 71 72 71 69 70 71 69 69 69 70 71 72 73 73 72 71
69 69 69 69 69 70 70 71 71 71 71 71 71 71 72 72 73 73 73 73 73 72 73 73 73 73 73 73 72 72 72 71 71 71 69 68 70 71 71 70 69 70 69
69 69 70 70 71 71 72 72 72 72 71 71 71 71 71 70 68 72 72 72 73 72 72 73 73 72 70 71 71 72 73 72 71 70 68 67 68 68 69 69 70 68 71
70 69 71 71 71 71 72 72 72 72 72 72 72 72 72 69 66 67 70 71 72 72 72 72 73 72 72 68 68 68 70 72 71 69 68 68 71 70 69 69 68 70 66
71 71 71 72 71 71 72 72 72 72 71 72 72 72 72 72 66 66 67 70 70 71 72 72 71 70 67 69 65 61 62 63 66 69 67 69 70 70 71 71 71 71 68
70 71 71 72 71 72 72 72 72 71 71 71 71 72 72 71 65 64 66 71 71 72 72 70 68 68 65 62 62 61 61 61 62 59 62 64 65 66 67 68 68 70 70
70 71 71 71 71 71 71 72 72 71 71 71 71 72 72 72 62 62 65 71 70 69 67 66 66 66 61 58 60 60 61 62 58 58 58 58 58 59 59 60 60 59 59
70 71 72 72 72 71 72 73 73 72 72 71 72 72 69 73 63 60 64 69 68 69 66 66 60 63 58 57 60 58 57 59 60 61 61 61 60 61 59 60 59 59 58
72 72 72 72 72 72 73 73 73 72 72 72 72 73 73 72 71 59 59 68 66 65 64 63 63 57 55 54 54 59 59 59 60 60 59 58 59 60 60 61 61 59 58
70 71 72 73 72 71 73 72 72 72 72 72 72 72 71 70 61 57 58 60 61 63 62 60 59 54 53 53 55 56 55 56 59 58 58 58 58 58 59 61 63 61 61
64 66 72 73 72 73 73 73 71 72 70 72 71 70 65 63 62 55 55 55 56 59 58 57 54 53 52 54 55 56 56 59 59 58 57 58 58 60 61 60 61 62 61
69 68 68 70 70 71 72 73 72 71 70 67 66 65 63 61 61 58 58 56 55 56 56 57 57 56 55 57 58 59 59 59 59 59 59 60 60 60 59 61 60 61 60
68 68 68 68 67 63 64 64 67 67 63 62 62 63 63 63 63 58 57 57 57 56 57 59 58 58 59 59 59 59 59 59 60 60 60 60 60 60 60 62 62 62 58
67 66 66 65 65 64 65 63 52 51 50 52 53 60 62 55 50 48 48 48 48 48 56 57 57 57 58 59 59 60 60 59 60 60 61 60 59 59 59 59 59 59 57
67 68 67 63 64 64 65 61 60 58 49 46 49 51 54 54 46 45 44 45 45 48 57 57 57 58 58 58 59 60 59 59 60 61 60 59 58 58 58 57 57 56 55
66 60 66 66 65 63 64 64 63 61 62 60 49 50 46 45 45 44 43 46 54 52 56 56 56 57 58 59 59 59 59 59 60 60 60 59 60 58 57 57 55 54 54
61 64 65 65 64 63 63 64 62 63 63 60 54 50 45 44 43 43 43 57 56 55 55 56 57 57 58 59 59 59 60 59 59 59 60 59 59 57 56 56 55 52 53
59 60 61 64 64 62 61 60 62 61 60 57 57 55 52 51 54 55 55 56 55 55 56 56 57 58 58 59 59 59 59 58 58 57 57 57 57 56 56 55 55 54 54
57 60 62 64 63 62 63 62 62 62 60 57 57 55 50 55 54 54 55 55 54 53 54 55 57 58 58 58 59 58 58 58 58 58 57 57 57 56 56 55 55 54 54
59 63 63 63 62 63 62 62 61 61 58 57 55 54 47 54 53 53 55 54 54 55 53 55 57 57 57 56 57 56 55 55 55 55 56 56 56 55 55 54 54 53 52
62 63 62 62 63 61 61 61 60 60 60 58 56 55 52 53 52 52 54 54 54 54 54 55 55 56 57 57 55 55 53 54 55 55 56 56 55 54 53 53 52 52 52
63 63 63 62 62 62 61 61 60 56 60 59 56 55 54 52 53 54 54 53 54 54 53 54 55 55 57 58 55 54 53 54 55 55 56 54 52 51 51 51 50 51 50
64 63 62 62 62 61 61 60 61 60 59 58 56 56 55 54 54 52 52 52 53 53 53 53 55 56 58 59 57 54 49 47 54 48 55 54 53 54 50 48 49 49 49
62 63 64 62 62 61 62 61 61 62 60 57 57 56 56 54 51 50 51 51 52 53 54 55 56 57 57 57 58 52 38 39 50 42 53 53 52 52 51 51 51 48 49
Lifted_Index
-4 -4 -3 -3 -3 -2 -2 -2 -2 -2 -2 -3 -3 -3 -4 -4 -4 -4 -5 -5 -5 -6 -6 -5 -5 -5 -5 -5 -5 -5 -5 -5 -4 -4 -4 -5 -5 -5 -5 -5 -6 -6 -6
-4 -4 -4 -3 -3 -3 -2 -2 -2 -2 -2 -3 -3 -3 -4 -4 -4 -4 -5 -5 -5 -6 -5 -5 -5 -5 -5 -5 -5 -5 -5 -5 -5 -4 -4 -5 -5 -5 -5 -6 -5 -5 -5
-4 -4 -4 -4 -3 -3 -3 -3 -2 -2 -3 -3 -3 -3 -4 -4 -5 -5 -5 -5 -5 -5 -5 -5 -5 -5 -5 -5 -5 -5 -5 -5 -5 -5 -5 -5 -5 -5 -5 -5 -5 -5 -5
-4 -4 -4 -4 -4 -4 -4 -3 -3 -3 -3 -3 -3 -4 -4 -4 -5 -5 -5 -5 -5 -5 -5 -5 -5 -5 -5 -4 -4 -4 -5 -5 -5 -5 -5 -5 -5 -5 -5 -5 -5 -5 -5
-5 -4 -4 -4 -4 -4 -4 -4 -4 -4 -3 -3 -4 -4 -4 -4 -4 -4 -5 -5 -5 -5 -5 -5 -5 -5 -4 -4 -4 -4 -4 -5 -5 -4 -4 -5 -5 -5 -5 -4 -4 -4 -4
-5 -5 -5 -4 -4 -4 -4 -4 -4 -4 -4 -4 -4 -4 -4 -4 -4 -4 -4 -4 -5 -5 -5 -5 -5 -4 -4 -3 -3 -3 -3 -4 -4 -4 -4 -4 -5 -5 -5 -4 -4 -4 -3
-5 -5 -5 -5 -5 -5 -5 -5 -5 -4 -4 -4 -4 -4 -5 -4 -4 -3 -3 -4 -4 -4 -5 -5 -4 -3 -2 -2 -2 -2 -2 -2 -2 -2 -2 -3 -3 -3 -3 -3 -3 -2 -2
-6 -6 -6 -5 -5 -5 -5 -5 -5 -5 -5 -4 -4 -5 -5 -4 -4 -3 -3 -3 -4 -4 -4 -4 -3 -2 -1 -1 -1 -1 -1 -1 -1 -1 -0 1 1 2 2 1 1 0 -0
-7 -7 -6 -6 -5 -5 -5 -6 -6 -6 -5 -5 -5 -5 -5 -5 -4 -3 -3 -3 -4 -4 -3 -3 -2 -2 -0 0 0 0 0 0 1 2 3 4 5 6 6 5 4 3 3
-7 -7 -7 -7 -6 -6 -6 -6 -6 -6 -6 -6 -6 -6 -6 -5 -5 -4 -4 -4 -4 -3 -3 -3 -2 -1 0 1 1 1 1 2 3 4 5 6 6 6 6 6 6 5 5
-7 -7 -7 -7 -7 -7 -7 -6 -6 -6 -6 -7 -7 -6 -6 -6 -6 -5 -5 -5 -4 -4 -3 -2 -2 -0 1 2 3 3 4 4 5 5 5 5 6 6 6 7 7 6 6
-5 -6 -7 -8 -8 -7 -7 -7 -7 -7 -7 -7 -7 -7 -7 -7 -6 -6 -6 -5 -4 -3 -2 -2 -1 1 2 3 5 6 5 5 5 5 5 5 6 7 7 8 8 7 7
-3 -4 -6 -7 -8 -8 -8 -8 -8 -7 -7 -7 -7 -7 -7 -7 -7 -7 -6 -5 -4 -2 -0 1 2 3 4 5 6 6 6 5 5 5 5 6 7 7 8 8 8 8 8
-4 -4 -5 -6 -7 -7 -7 -8 -8 -7 -7 -6 -5 -5 -4 -5 -6 -7 -6 -4 -1 1 3 4 5 6 6 6 6 5 5 5 5 5 6 6 7 7 7 8 8 8 8
-4 -4 -4 -5 -5 -5 -6 -6 -6 -6 -6 -4 -3 -2 -2 -2 -4 -5 -3 -1 2 4 5 6 7 7 7 7 6 5 5 5 5 6 6 6 6 6 6 7 7 7 7
-4 -4 -4 -3 -3 -4 -4 -4 -5 -5 -4 -3 -2 -1 -1 -1 -2 -2 -0 2 5 5 6 6 7 7 7 6 5 5 4 4 5 5 5 5 5 5 5 5 6 6 7
-3 -3 -3 -3 -3 -3 -3 -3 -3 -3 -3 -2 -1 -0 -0 -0 -0 0 2 5 6 6 6 6 6 6 6 6 5 4 4 4 5 5 5 4 4 4 4 4 5 5 5
-2 -2 -2 -2 -2 -2 -3 -3 -2 -2 -2 -1 -0 1 1 1 2 2 4 5 5 6 6 6 6 6 6 5 5 4 3 4 4 5 4 4 4 4 4 4 4 4 5
-1 -1 -2 -1 -1 -2 -2 -3 -2 -2 -1 -1 0 1 2 2 3 4 5 5 5 5 5 5 6 6 6 5 5 4 4 4 4 4 4 4 4 4 4 4 4 4 4
-1 -1 -2 -1 -1 -1 -2 -2 -3 -2 -1 -1 0 2 3 3 4 5 5 5 4 4 5 5 5 6 6 5 5 4 4 4 4 4 4 4 4 4 4 4 4 4 4
-1 -1 -2 -2 -2 -1 -2 -2 -3 -2 -1 -0 1 2 3 4 4 5 5 4 4 5 5 5 5 5 5 6 5 5 5 5 4 4 4 4 4 4 4 4 4 4 4
-2 -2 -2 -2 -2 -2 -2 -2 -2 -2 -1 0 1 2 3 4 4 4 4 4 4 4 5 5 5 5 5 6 6 6 6 5 5 5 5 5 5 5 5 5 5 5 5
-2 -2 -2 -2 -2 -2 -2 -2 -2 -1 -1 -0 1 2 3 3 4 4 4 4 4 4 4 5 5 4 5 5 6 6 6 6 6 5 5 5 6 6 6 6 6 6 6
-3 -3 -3 -2 -2 -2 -2 -2 -1 -1 -1 -0 1 2 3 3 4 4 4 4 4 4 4 4 4 4 4 5 5 6 7 7 6 6 6 6 6 6 6 6 6 6 6
-4 -4 -3 -3 -2 -2 -3 -2 -1 -1 -1 -0 1 2 2 3 3 4 4 4 4 3 3 4 4 4 4 4 5 6 7 7 7 6 6 6 6 6 6 6 6 6 6
-4 -4 -4 -3 -3 -2 -3 -2 -1 -1 -1 -0 1 1 1 2 4 4 4 4 4 3 3 3 3 4 4 4 4 5 7 8 7 7 6 6 6 6 6 6 6 6 6